This is the latest recevied weather packets stored in our database for station/object KF4WSW-13. If no packets are shown the sender has not sent any weather packets the latest 10 day(s).
| Time | Temp. | Humidity | Pressure | Rain* | Wind** | Luminosity | Snow |
|---|---|---|---|---|---|---|---|
| 1777943446 | 23.33° C | 63% | 1013.1 hPa | 0 mm | - | 0 W/m² | - |
| 1777943141 | 23.89° C | 61% | 1013.2 hPa | 0 mm | - | 0 W/m² | - |
| 1777942838 | 23.89° C | 63% | 1013.1 hPa | 0 mm | - | 0 W/m² | - |
| 1777942534 | 23.89° C | 62% | 1013.3 hPa | 0 mm | - | 0 W/m² | - |
| 1777942232 | 23.89° C | 62% | 1013.2 hPa | 0 mm | - | 0 W/m² | - |
| 1777941929 | 23.89° C | 62% | 1013 hPa | 0 mm | - | 0 W/m² | - |
| 1777941626 | 23.89° C | 62% | 1013.1 hPa | 0 mm | - | 0 W/m² | - |
| 1777941323 | 23.89° C | 61% | 1012.9 hPa | 0 mm | - | 0 W/m² | - |
| 1777941020 | 23.89° C | 63% | 1012.7 hPa | 0 mm | - | 0 W/m² | - |
| 1777940715 | 23.89° C | 62% | 1012.5 hPa | 0 mm | - | 0 W/m² | - |
| 1777940414 | 23.89° C | 63% | 1012.6 hPa | 0 mm | - | 0 W/m² | - |
| 1777940111 | 23.89° C | 63% | 1012.6 hPa | 0 mm | - | 1 W/m² | - |
| 1777939808 | 23.89° C | 62% | 1012.5 hPa | 0 mm | - | 2 W/m² | - |
| 1777939506 | 23.89° C | 61% | 1012.6 hPa | 0 mm | - | 4 W/m² | - |
| 1777939203 | 23.89° C | 62% | 1012.6 hPa | 0 mm | - | 6 W/m² | - |
| 1777938900 | 23.89° C | 61% | 1012.4 hPa | 0 mm | - | 9 W/m² | - |
| 1777938596 | 24.44° C | 61% | 1012.3 hPa | 0 mm | - | 13 W/m² | - |
| 1777938293 | 24.44° C | 61% | 1012.1 hPa | 0 mm | - | 18 W/m² | - |
| 1777937990 | 24.44° C | 62% | 1011.8 hPa | 0 mm | - | 25 W/m² | - |
| 1777937685 | 24.44° C | 62% | 1012 hPa | 0 mm | - | 29 W/m² | - |
| 1777937383 | 24.44° C | 61% | 1011.9 hPa | 0 mm | - | 28 W/m² | - |
| 1777937080 | 24.44° C | 62% | 1012.1 hPa | 0 mm | - | 29 W/m² | - |
| 1777936777 | 24.44° C | 63% | 1012 hPa | 0 mm | - | 31 W/m² | - |
| 1777936473 | 24.44° C | 62% | 1012.2 hPa | 0 mm | - | 36 W/m² | - |
| 1777936169 | 24.44° C | 61% | 1012.1 hPa | 0 mm | - | 44 W/m² | - |
* Rain latest hour (hover to see other rain measurements)
** Current wind speed in m/s (hover to see current wind gust speed)